(347119) = 2010 JT116

Discovered at Catalina on 2010-05-04 by CSS.

Orbit

Orbit type: Main Belt

Note: WebGL enabled browser required.

epoch2023-09-13.0
epoch JD2460200.5
perihelion date2021-11-11.55728
perihelion JD2459530.05728
argument of perihelion (°)60.01839
ascending node (°)60.34621
inclination (°)9.53883
eccentricity0.0800563
perihelion distance (AU)2.3929868
Tisserand w.r.t. Jupiter3.4
ΔV w.r.t. Earth (km/sec)10.1
semimajor axis (AU)2.6012319
mean anomaly (°)157.50594
mean daily motion (°/day)0.23492830
aphelion distance (AU)2.809
period (years)4.2
P-vector [x]-0.49509297
P-vector [y]0.72909382
P-vector [z]0.47255175
Q-vector [x]-0.85682169
Q-vector [y]-0.49986496
Q-vector [z]-0.12645797
absolute magnitude15.92
phase slope0.15
uncertainty0
referenceMPEC 2023-X152
observations used694
oppositions11
arc length (days)6341
first opposition used2005
last opposition used2022
residual rms (arc-secs)0.71
perturbers coarse indicatorM-v
perturbers precise indicator003Ek
first observation date used2005-01-06.0
last observation date used2022-05-18.0
computer nameMPCLINUX
JD of orbit computation2456877.755379
perihelion JD uncertainty (days)2.4156E-04
argument of perihelion uncertainty (°)6.7461E-05
ascending node uncertainty (°)2.9982E-05
inclination uncertainty (°)7.3032E-06
eccentricity uncertainty 4.4876E-08
perihelion distance uncertainty (AU)1.1249E-07
Minimum Orbit Intersection Distances (in AU)
for orbit epoch: 2460200.5, reference: E2023-XF2
Mercury2.06083
Venus1.67981
Earth1.42412
Mars0.78633
Jupiter2.29672
Saturn6.61966
Uranus16.007
Neptune27.2104

Observations

705 total observations over interval: 2005 01 06.33201 – 2022 05 18.212702
These data are available for download (format description).

Date (UT) J2000 RA J2000 Dec Magn Location Ref
2005 01 06.33201 08 21 53.38 +32 41 14.5 18.8 R 703 – Catalina Sky Survey MPS 441818
2005 01 06.33846 08 21 53.09 +32 41 15.8 19.1 R 703 – Catalina Sky Survey MPS 441818
2005 01 06.34493 08 21 52.74 +32 41 17.8 18.4 R 703 – Catalina Sky Survey MPS 441818
2005 01 06.35139 08 21 52.27 +32 41 22.6 19.0 R 703 – Catalina Sky Survey MPS 441818
2006 04 25.43601 16 20 54.96 -20 10 56.5 19.8 V G96 – Mt. Lemmon Survey MPS 346417
2006 04 25.44192 16 20 54.70 -20 10 57.2 19.6 V G96 – Mt. Lemmon Survey MPS 346417
2006 04 25.44790 16 20 54.45 -20 10 57.6 19.5 V G96 – Mt. Lemmon Survey MPS 346417
2006 04 25.45385 16 20 54.20 -20 10 58.0 19.4 V G96 – Mt. Lemmon Survey MPS 346417
2006 05 24.27364 15 54 43.45 -20 39 24.6 19.4 R 644 – Palomar Mountain/NEAT MPS 346417
2006 05 24.29791 15 54 41.91 -20 39 25.2 19.2 R 644 – Palomar Mountain/NEAT MPS 346417
2006 05 24.32475 15 54 40.18 -20 39 26.1 19.1 R 644 – Palomar Mountain/NEAT MPS 346417
2010 01 31.238421 14 47 53.784 -09 04 40.44   C51 – WISE MPS 904137
2010 01 31.503156 14 48 08.827 -09 05 47.04   C51 – WISE MPS 904137
2010 01 31.767765 14 48 23.758 -09 06 52.81   C51 – WISE MPS 904137
2010 01 31.833981 14 48 27.458 -09 07 06.56   C51 – WISE MPS 904137
2010 01 31.900069 14 48 31.26 -09 07 22.0   C51 – WISE MPS 372122
2010 01 31.966286 14 48 35.07 -09 07 37.3   C51 – WISE MPS 375656
2010 02 01.230894 14 48 49.87 -09 08 39.5   C51 – WISE MPS 372122
2010 02 01.49563 14 49 04.57 -09 09 43.3   C51 – WISE MPS 372122
2010 05 04.31465 14 36 46.11 -09 57 44.7 18.8 V 703 – Catalina Sky Survey MPS 327645
2010 05 04.32097 14 36 45.68 -09 57 44.9 18.7 V 703 – Catalina Sky Survey MPS 327645
2010 05 04.32741 14 36 45.36 -09 57 45.2 18.7 V 703 – Catalina Sky Survey MPS 327645
2010 05 04.33383 14 36 45.00 -09 57 43.5 19.1 V 703 – Catalina Sky Survey MPS 327645
2010 05 16.24582 14 25 35.00 -09 52 11.4 18.9 V 703 – Catalina Sky Survey MPS 327645
2010 05 16.25271 14 25 34.60 -09 52 12.2 19.4 V 703 – Catalina Sky Survey MPS 327645
2010 05 16.25962 14 25 34.28 -09 52 11.8 19.5 V 703 – Catalina Sky Survey MPS 327645
2010 05 16.26649 14 25 33.96 -09 52 11.2 19.4 V 703 – Catalina Sky Survey MPS 327645
2010 05 19.25324 14 23 02.36 -09 52 33.6 19.4 V 703 – Catalina Sky Survey MPS 328676
2010 05 19.26189 14 23 01.93 -09 52 33.4 19.5 V 703 – Catalina Sky Survey MPS 328676
2010 05 19.26877 14 23 01.60 -09 52 33.4 19.9 V 703 – Catalina Sky Survey MPS 328676
2010 05 19.27569 14 23 01.17 -09 52 34.1 19.6 V 703 – Catalina Sky Survey MPS 328676
2010 05 21.24273 14 21 26.56 -09 53 15.5 19.4 V G96 – Mt. Lemmon Survey MPS 328676
2010 05 21.24926 14 21 26.24 -09 53 15.7 19.6 V G96 – Mt. Lemmon Survey MPS 328676
2010 05 21.25582 14 21 25.92 -09 53 16.1 19.6 V G96 – Mt. Lemmon Survey MPS 328676
2010 05 21.26238 14 21 25.59 -09 53 16.2 19.5 V G96 – Mt. Lemmon Survey MPS 328676
2011 08 01.48331 21 50 56.259 -28 17 10.09 20.3 w F51 – Pan-STARRS 1, Haleakala MPS 388032
2011 08 01.49581 21 50 55.592 -28 17 14.85 20.2 w F51 – Pan-STARRS 1, Haleakala MPS 388032
2011 08 01.50834 21 50 54.922 -28 17 19.57 20.2 w F51 – Pan-STARRS 1, Haleakala MPS 388032
2011 08 03.44205 21 49 13.955 -28 29 22.04 19.9 r F51 – Pan-STARRS 1, Haleakala MPS 388419
2011 08 03.45170 21 49 13.419 -28 29 25.53 19.9 r F51 – Pan-STARRS 1, Haleakala MPS 388419
2012 11 04.38150 04 34 39.57 +21 43 40.5 19.0 V 703 – Catalina Sky Survey MPS 439618
2012 11 04.38946 04 34 39.25 +21 43 40.5 18.7 V 703 – Catalina Sky Survey MPS 439618
2012 11 04.39740 04 34 38.92 +21 43 43.5 18.5 V 703 – Catalina Sky Survey MPS 439618
2012 11 04.40540 04 34 38.53 +21 43 44.1 19.0 V 703 – Catalina Sky Survey MPS 439618
2012 11 12.39958 04 27 52.70 +22 02 36.3 18.9 V G96 – Mt. Lemmon Survey MPS 441818
2012 11 12.40660 04 27 52.30 +22 02 37.2 18.8 V G96 – Mt. Lemmon Survey MPS 441818
2012 11 12.41362 04 27 51.87 +22 02 38.1 18.9 V G96 – Mt. Lemmon Survey MPS 441818
2012 11 12.42068 04 27 51.48 +22 02 39.0 18.9 V G96 – Mt. Lemmon Survey MPS 441818
2012 11 17.21549 04 23 08.61 +22 12 44.4   691 – Steward Observatory, Kitt Peak-Spacewatch MPS 443471
2012 11 17.23349 04 23 07.47 +22 12 46.9   691 – Steward Observatory, Kitt Peak-Spacewatch MPS 443471
2012 11 17.25148 04 23 06.32 +22 12 49.1   691 – Steward Observatory, Kitt Peak-Spacewatch MPS 443471
2012 11 20.29183 04 19 55.48 +22 18 42.0 19.5   704 – Lincoln Laboratory ETS, New Mexico MPS 443471
2012 11 20.30656 04 19 54.48 +22 18 43.6 19.1   704 – Lincoln Laboratory ETS, New Mexico MPS 443471
2012 11 20.32129 04 19 53.49 +22 18 44.8 19.3   704 – Lincoln Laboratory ETS, New Mexico MPS 443471
2012 11 20.33640 04 19 52.54 +22 18 46.2 19.3   704 – Lincoln Laboratory ETS, New Mexico MPS 443471
2012 12 02.14044 04 06 57.42 +22 37 36.4 18.7 V G96 – Mt. Lemmon Survey MPS 445947
2012 12 02.14928 04 06 56.84 +22 37 37.0 18.6 V G96 – Mt. Lemmon Survey MPS 445947
2012 12 02.15819 04 06 56.23 +22 37 37.9 18.5 V G96 – Mt. Lemmon Survey MPS 445947
2012 12 02.16696 04 06 55.62 +22 37 38.8 18.4 V G96 – Mt. Lemmon Survey MPS 445947
2012 12 02.32598 04 06 44.85 +22 37 52.1 18.5 V 703 – Catalina Sky Survey MPS 445947
2012 12 02.33099 04 06 44.53 +22 37 51.9 19.4 V 703 – Catalina Sky Survey MPS 445947
2012 12 02.33685 04 06 44.06 +22 37 52.7 18.6 V 703 – Catalina Sky Survey MPS 445947
2012 12 02.34488 04 06 43.56 +22 37 52.7 18.2 V 703 – Catalina Sky Survey MPS 445947
2012 12 04.97388 04 03 53.20 +22 41 19.5 19.0   J43 – Oukaimeden Observatory, Marrakech MPS 445947
2012 12 04.98628 04 03 52.39 +22 41 21.0 19.2   J43 – Oukaimeden Observatory, Marrakech MPS 445947
2012 12 04.99871 04 03 51.52 +22 41 21.8 18.9   J43 – Oukaimeden Observatory, Marrakech MPS 445947
2012 12 05.01116 04 03 50.72 +22 41 23.1 19.4   J43 – Oukaimeden Observatory, Marrakech MPS 445947
2012 12 06.21528 04 02 34.08 +22 42 52.2 18.9 V 703 – Catalina Sky Survey MPS 445947
2012 12 06.22002 04 02 33.75 +22 42 52.4 18.9 V 703 – Catalina Sky Survey MPS 445947
2012 12 06.22481 04 02 33.43 +22 42 53.3 18.9 V 703 – Catalina Sky Survey MPS 445947
2012 12 06.22959 04 02 33.10 +22 42 53.8 19.1 V 703 – Catalina Sky Survey MPS 445947
2012 12 06.26380 04 02 30.84 +22 42 56.4 19.0 V 703 – Catalina Sky Survey MPS 445947
2012 12 06.27270 04 02 30.26 +22 42 56.7 18.7 V 703 – Catalina Sky Survey MPS 445947
2012 12 06.28169 04 02 29.68 +22 42 57.7 18.7 V 703 – Catalina Sky Survey MPS 445947
2012 12 06.29064 04 02 29.07 +22 42 58.1 18.5 V 703 – Catalina Sky Survey MPS 445947
2012 12 09.96289 03 58 42.10 +22 47 19.6 19.1   J43 – Oukaimeden Observatory, Marrakech MPS 447738
2012 12 09.97479 03 58 41.36 +22 47 19.6 19.5   J43 – Oukaimeden Observatory, Marrakech MPS 447738
2012 12 09.98669 03 58 40.56 +22 47 20.9 19.2   J43 – Oukaimeden Observatory, Marrakech MPS 447738
2012 12 09.99863 03 58 39.88 +22 47 21.8 19.0   J43 – Oukaimeden Observatory, Marrakech MPS 447738
2012 12 11.95847 03 56 43.98 +22 49 34.9 19.7   J43 – Oukaimeden Observatory, Marrakech MPS 447738
2012 12 11.97043 03 56 43.29 +22 49 35.6 19.5   J43 – Oukaimeden Observatory, Marrakech MPS 447738
2012 12 11.98239 03 56 42.58 +22 49 36.7 19.3   J43 – Oukaimeden Observatory, Marrakech MPS 447738
2012 12 11.99435 03 56 41.86 +22 49 37.4 19.3   J43 – Oukaimeden Observatory, Marrakech MPS 447738
2012 12 13.19335 03 55 33.27 +22 50 57.5 19.1 V 703 – Catalina Sky Survey MPS 447738
2012 12 13.19874 03 55 32.95 +22 50 57.1 19.1 V 703 – Catalina Sky Survey MPS 447738
2012 12 13.20144 03 55 32.83 +22 50 59.5 19.3   704 – Lincoln Laboratory ETS, New Mexico MPS 447738
2012 12 13.20421 03 55 32.70 +22 50 57.8 19.2 V 703 – Catalina Sky Survey MPS 447738
2012 12 13.20964 03 55 32.37 +22 50 58.6 19.2 V 703 – Catalina Sky Survey MPS 447738
2012 12 13.21503 03 55 32.03 +22 50 59.8 19.6   704 – Lincoln Laboratory ETS, New Mexico MPS 447738
2012 12 13.22830 03 55 31.32 +22 51 00.6 19.8   704 – Lincoln Laboratory ETS, New Mexico MPS 447738
2012 12 13.24147 03 55 30.55 +22 51 01.2 19.5   704 – Lincoln Laboratory ETS, New Mexico MPS 447738
2012 12 13.25505 03 55 29.72 +22 51 01.7 19.5   704 – Lincoln Laboratory ETS, New Mexico MPS 447738
2013 01 01.88898 03 42 07.02 +23 15 26.7 20.0   J43 – Oukaimeden Observatory, Marrakech MPS 449579
